Showing default

JILIN-01-06, 43024

Orbit data source: Space-Track

JILIN-01-06, 43024 is a payload satellite owned by Changguang WJ (CN) in SSO that was launched on Tue, 21 Nov 2017 UTC via a CHANG ZHENG 6 launch vehicle from the Taiyaun Space Center, China (TSC). Payloads include a variety of satellites, spacecraft, and rockets equipped with specific instruments for various scientific and technological missions. These include communications satellites like Starlink; space stations such as the ISS; scientific satellites like the Hubble; Earth observation satellites from companies like Planet Labs, Umbra, and HawkEye 360; GPS; miniature CubeSats for education and research; and military/defense satellites.

Loading next visibility...
JILIN-01-06 details
Identifier
43024, 2017-074C
Orbit
SSO
Last TLE update4 hours ago
Origin
Flag of CNChangguang WJ (CN / PRC)
ManufacturerHARB/CIOMP
MissionOperational Commercial Imaging
Bus & MotorJL-1, Unknown motor
Mass95 kg wet, 95 kg dry
Launch date (UTC)
2017-11-21 (7 years ago)
Launch vehicle
CHANG ZHENG 6
Launch site
Taiyaun Space Center, China (TSC)
Object type
Payload
Rocket body
Debris
Shape & HBRBox + 2 Pan, 1.5 m
Radar Cross Section2.000 m², Medium (>0.1 m² and < 1m²)

Expand to show TLE details & history

TLE from 4 hours ago
0 JILIN-01-06
1 43024U 17074C   24361.52446156  .00013930  00000-0  59612-3 0  9993
2 43024  97.4845  91.1373 0008153 350.3674   9.7405 15.22897382391680
Epoch: 2024-12-26T12:35Z
Definitive object data (Epoch: 2024-12-26T12:35:13.478Z)
Latitude-0.00002°
Longitude166.82853°
Altitude494.673 km
Speed7.62 km/s
True Right ascension06h 04m 32s
True Declination0° 00' 00"
Sunlit
Object was in full shadow at TLE epoch
Visualization TLE readout
Latitude-79.89643°
Longitude-145.83217°
Altitude523.513 km
Speed7.601 km/s
Apparent Right ascension05h 09m 36s
Apparent Declination-63° 39' 26"
Sunlit
Object is in daylight
Visualization observer readout
Local Sidereal Time16:19:29
Azimuth193.234° SSW
Elevation-65.13°
Doppler factor1
Orbital elements
Apogee altitude499.675 km
Perigee altitude488.469 km
Semi-major axis6,872.209 km
Eccentricity0.0008153
Inclination97.4845°
RAAN91.1373°
Arg. of periapsis350.3674°
True anomaly9.75632°
Mean anomaly9.7405°
Eccentric anomaly9.74841°
Mean motion3.80977 °/min
BSTAR0.00059612
Orbital period94.49 mins
Loading maneuver chart data...
Loading historical data...
Loading historical data...
Loading historical data...
Loading historical data...
Loading historical data...
Loading historical data...
Loading historical data...
Other satellites on launch #74 in the year 2017 (2017-11-21 UTC)

JILIN-01-06 Visibility forecast

Observer location: undefined°, undefined

Span
Click to sort rows by Start time (UTC) header in descending order
Start Az.
Max El. time (UTC)
Max El. Az.
Max El.
End time (UTC)
End Az.
5 mins2024-12-26 19:28:13.929Z345.97° N2024-12-26 19:30:13.929Z278.384° WNW34.891°2024-12-26 19:33:13.929Z215.076° SW
6 mins2024-12-27 06:04:13.929Z152.814° SSE2024-12-27 06:06:13.929Z115.387° SE39.639°2024-12-27 06:10:13.929Z354.87° N
|